| time (UTC) | temp C | wind direction | speed KPH | gust KPH | rain 1hr cm | rain 24hr cm | rain mn cm | humidity % | barometer mb |
| 20260502151609 | 12 | 71 | 0.0 | 3.2 | 0.00 | 0.03 | 0.03 | 74 | 1011.8 |
| 20260502150125 | 12 | 74 | 1.6 | 4.8 | 0.00 | 0.03 | 0.03 | 76 | 1011.9 |
| 20260502123034 | 10 | 169 | 0.0 | 1.6 | 0.00 | 0.03 | 0.03 | 92 | 1012.0 |
| 20260502121535 | 10 | 169 | 1.6 | 6.4 | 0.00 | 0.03 | 0.03 | 93 | 1012.1 |
| 20260502114534 | 10 | 178 | 0.0 | 1.6 | 0.00 | 0.03 | 0.03 | 93 | 1012.2 |
| 20260502113033 | 10 | 178 | 0.0 | 0.0 | 0.03 | 0.03 | 0.03 | 92 | 1012.0 |
| 20260502111530 | 10 | 178 | 0.0 | 1.6 | 0.03 | 0.03 | 0.03 | 92 | 1011.7 |
| 20260502110032 | 10 | 177 | 0.0 | 0.0 | 0.03 | 0.03 | 0.03 | 91 | 1011.4 |
| 20260502104528 | 10 | 178 | 1.6 | 4.8 | 0.03 | 0.03 | 0.03 | 89 | 1011.4 |
| 20260502103054 | 10 | 178 | 0.0 | 0.0 | 0.00 | 0.00 | 0.00 | 88 | 1011.8 |
| 20260502101533 | 10 | 178 | 0.0 | 1.6 | 0.00 | 0.00 | 0.00 | 87 | 1011.6 |
| 20260502071518 | 10 | 176 | 0.0 | 3.2 | 0.00 | 0.00 | 0.00 | 83 | 1011.5 |
| 20260502070016 | 10 | 176 | 1.6 | 4.8 | 0.00 | 0.00 | 0.00 | 83 | 1011.7 |
| 20260502064513 | 10 | 166 | 0.0 | 8.0 | 0.00 | 0.00 | 0.00 | 83 | 1011.7 |
| 20260502063016 | 10 | 166 | 1.6 | 11.3 | 0.00 | 0.00 | 0.00 | 82 | 1011.8 |
| 20260502061511 | 10 | 190 | 0.0 | 4.8 | 0.00 | 0.00 | 0.00 | 81 | 1011.9 |
| 20260502060009 | 10 | 188 | 0.0 | 1.6 | 0.00 | 0.00 | 0.00 | 79 | 1012.1 |
| 20260502054511 | 10 | 188 | 0.0 | 3.2 | 0.00 | 0.00 | 0.00 | 79 | 1012.0 |
| 20260502053006 | 10 | 188 | 0.0 | 4.8 | 0.00 | 0.00 | 0.00 | 78 | 1011.7 |
| 20260502051505 | 11 | 188 | 0.0 | 6.4 | 0.00 | 0.00 | 0.00 | 76 | 1011.7 |
| 20260502050003 | 11 | 207 | 0.0 | 1.6 | 0.00 | 0.00 | 0.00 | 76 | 1011.9 |
| 20260502044502 | 11 | 207 | 0.0 | 1.6 | 0.00 | 0.00 | 0.00 | 75 | 1011.8 |
| 20260502043108 | 11 | 207 | 0.0 | 1.6 | 0.00 | 0.00 | 0.00 | 74 | 1011.9 |
| 20260502041558 | 11 | 207 | 1.6 | 11.3 | 0.00 | 0.00 | 0.00 | 73 | 1012.1 |
| 20260502040100 | 11 | 207 | 1.6 | 8.0 | 0.00 | 0.00 | 0.00 | 73 | 1012.0 |
| 20260502034553 | 10 | 140 | 0.0 | 3.2 | 0.00 | 0.00 | 0.00 | 76 | 1012.0 |
| 20260502033049 | 10 | 112 | 0.0 | 4.8 | 0.00 | 0.00 | 0.00 | 79 | 1011.8 |
| 20260502031544 | 10 | 111 | 0.0 | 9.7 | 0.00 | 0.00 | 0.00 | 81 | 1012.1 |
| 20260502030047 | 10 | 159 | 0.0 | 8.0 | 0.00 | 0.00 | 0.00 | 83 | 1012.2 |
| 20260502024536 | 10 | 149 | 1.6 | 12.9 | 0.00 | 0.00 | 0.00 | 83 | 1012.4 |
| 20260502023031 | 10 | 154 | 0.0 | 8.0 | 0.00 | 0.00 | 0.00 | 83 | 1012.3 |
| 20260502021526 | 10 | 156 | 1.6 | 12.9 | 0.00 | 0.00 | 0.00 | 82 | 1012.2 |
| 20260502020022 | 10 | 170 | 0.0 | 9.7 | 0.00 | 0.00 | 0.00 | 81 | 1012.1 |
| 20260502014517 | 10 | 167 | 3.2 | 12.9 | 0.00 | 0.00 | 0.00 | 81 | 1012.1 |
| 20260502013013 | 10 | 146 | 3.2 | 11.3 | 0.00 | 0.00 | 0.00 | 79 | 1012.1 |
| 20260502011509 | 11 | 161 | 3.2 | 17.7 | 0.00 | 0.00 | 0.00 | 77 | 1012.0 |
| 20260502010004 | 11 | 161 | 4.8 | 17.7 | 0.00 | 0.00 | 0.00 | 75 | 1011.8 |
| 20260502004600 | 11 | 180 | 3.2 | 11.3 | 0.00 | 0.00 | 0.00 | 74 | 1011.8 |
| 20260502003056 | 11 | 138 | 3.2 | 11.3 | 0.00 | 0.00 | 0.00 | 75 | 1011.7 |
| 20260502001551 | 11 | 235 | 3.2 | 11.3 | 0.00 | 0.00 | 0.00 | 75 | 1011.6 |
| 20260502000047 | 11 | 161 | 3.2 | 11.3 | 0.00 | 0.00 | 0.00 | 75 | 1011.4 |
| 20260501234544 | 11 | 159 | 4.8 | 16.1 | 0.00 | 0.00 | 0.00 | 75 | 1011.3 |
| 20260501233049 | 11 | 158 | 0.0 | 8.0 | 0.00 | 0.00 | 0.00 | 73 | 1011.3 |
| 20260501231535 | 11 | 159 | 4.8 | 12.9 | 0.00 | 0.00 | 0.00 | 72 | 1011.1 |
| 20260501230030 | 12 | 151 | 1.6 | 12.9 | 0.00 | 0.00 | 0.00 | 71 | 1011.0 |
| 20260501224526 | 12 | 170 | 1.6 | 8.0 | 0.00 | 0.03 | 0.00 | 70 | 1011.1 |
| 20260501223033 | 12 | 184 | 4.8 | 17.7 | 0.00 | 0.03 | 0.00 | 69 | 1011.1 |
| 20260501221517 | 12 | 133 | 4.8 | 14.5 | 0.00 | 0.03 | 0.00 | 68 | 1011.2 |
| 20260501220014 | 12 | 150 | 3.2 | 14.5 | 0.00 | 0.03 | 0.00 | 68 | 1011.1 |
| 20260501214526 | 12 | 155 | 6.4 | 11.3 | 0.00 | 0.03 | 0.00 | 65 | 1011.3 |
| 20260501213006 | 13 | 242 | 6.4 | 16.1 | 0.00 | 0.03 | 0.00 | 65 | 1011.0 |
| 20260501211504 | 13 | 184 | 8.0 | 19.3 | 0.00 | 0.03 | 0.00 | 61 | 1011.1 |
| 20260501210058 | 13 | 150 | 6.4 | 14.5 | 0.00 | 0.03 | 0.00 | 59 | 1011.1 |
| 20260501204604 | 14 | 146 | 8.0 | 22.5 | 0.00 | 0.03 | 0.00 | 56 | 1011.0 |
| 20260501203100 | 15 | 143 | 6.4 | 19.3 | 0.00 | 0.03 | 0.00 | 52 | 1011.0 |
| 20260501201545 | 15 | 165 | 4.8 | 16.1 | 0.00 | 0.03 | 0.00 | 51 | 1010.9 |
| 20260501200041 | 15 | 156 | 4.8 | 22.5 | 0.00 | 0.03 | 0.00 | 51 | 1010.9 |
| 20260501194542 | 16 | 147 | 6.4 | 16.1 | 0.00 | 0.03 | 0.00 | 50 | 1010.7 |
| 20260501193044 | 17 | 166 | 4.8 | 11.3 | 0.00 | 0.03 | 0.00 | 44 | 1010.8 |
| 20260501191531 | 17 | 164 | 3.2 | 11.3 | 0.00 | 0.03 | 0.00 | 43 | 1011.0 |
| 20260501190029 | 17 | 228 | 4.8 | 9.7 | 0.00 | 0.03 | 0.00 | 43 | 1011.1 |
| 20260501184522 | 17 | 224 | 3.2 | 11.3 | 0.00 | 0.03 | 0.00 | 41 | 1011.4 |
| 20260501183018 | 17 | 250 | 3.2 | 11.3 | 0.00 | 0.03 | 0.00 | 44 | 1011.5 |
| 20260501181513 | 17 | 236 | 8.0 | 14.5 | 0.00 | 0.03 | 0.00 | 42 | 1011.4 |
| 20260501180011 | 17 | 150 | 4.8 | 12.9 | 0.00 | 0.03 | 0.00 | 43 | 1011.4 |
| 20260501174504 | 16 | 334 | 3.2 | 9.7 | 0.00 | 0.03 | 0.00 | 45 | 1011.6 |
| 20260501173101 | 17 | 247 | 4.8 | 11.3 | 0.00 | 0.03 | 0.00 | 36 | 1011.8 |
| 20260501171606 | 16 | 313 | 3.2 | 9.7 | 0.00 | 0.03 | 0.00 | 38 | 1011.8 |
| 20260501170107 | 16 | 257 | 3.2 | 11.3 | 0.00 | 0.03 | 0.00 | 38 | 1012.0 |
| 20260501164553 | 16 | 240 | 3.2 | 11.3 | 0.00 | 0.03 | 0.00 | 37 | 1012.1 |
| 20260501163045 | 15 | 44 | 3.2 | 8.0 | 0.00 | 0.03 | 0.00 | 42 | 1012.2 |
| 20260501161541 | 15 | 261 | 3.2 | 9.7 | 0.00 | 0.03 | 0.00 | 40 | 1012.4 |
| 20260501160043 | 15 | 30 | 1.6 | 6.4 | 0.00 | 0.03 | 0.00 | 42 | 1012.6 |